SCP
0 0 0 0 0 0 0 0 0 0 0 1 1 2 2 3 2 2 2 3 5 7 10 11 8 5 5 6 7 7 6 6 5 4 4 4 4 4 4 4 4 4 4 3
0 0 0 0 0 0 0 0 0 0 0 1 1 2 2 2 2 2 3 5 7 8 10 10 7 5 5 6 6 7 7 6 5 4 5 5 4 4 3 4 4 4 3 3
0 0 0 0 0 0 0 0 0 0 1 1 2 2 2 1 1 2 3 6 8 8 8 7 6 6 6 6 6 6 7 6 5 5 5 5 4 4 3 4 4 3 3 3
0 0 0 0 0 0 0 0 0 1 1 1 2 3 2 2 2 2 2 4 6 6 5 5 6 6 7 6 6 6 6 6 7 6 6 5 4 4 4 4 4 4 3 3
0 0 0 0 0 0 0 0 0 1 1 1 2 2 2 2 2 2 2 2 4 5 5 5 7 8 9 8 7 8 8 9 9 8 7 6 5 4 4 4 4 4 3 3
0 0 0 0 0 0 0 0 0 1 1 1 1 1 1 2 3 2 2 3 5 6 6 6 7 10 11 11 10 10 11 11 10 10 9 8 7 6 5 5 5 5 4 3
0 0 0 0 0 0 0 0 0 0 1 1 1 1 1 2 2 2 2 3 4 6 6 6 7 10 11 12 10 10 11 11 10 10 11 10 8 6 6 6 6 5 4 3
0 0 0 0 0 0 0 0 0 0 0 1 1 1 2 2 2 1 2 3 3 4 5 6 7 8 10 10 9 9 9 10 10 11 13 12 9 6 5 6 6 6 4 4
0 0 0 0 0 0 0 0 0 0 0 0 1 2 2 2 1 1 2 2 3 4 4 5 6 7 8 8 8 8 8 9 11 13 14 12 8 6 5 5 6 6 5 4
0 0 0 0 0 0 0 0 0 0 0 0 1 2 2 2 1 1 2 3 3 4 4 4 5 6 7 7 8 9 9 10 11 13 13 10 7 5 5 5 6 6 5 4
1 0 0 0 0 0 0 0 0 0 1 0 1 1 2 2 2 2 3 3 4 4 4 5 5 5 6 8 9 11 12 11 11 11 10 8 6 5 5 4 5 5 5 4
1 1 1 0 0 0 0 0 0 0 1 1 1 2 2 3 3 3 4 4 4 4 5 5 6 6 8 9 11 12 12 10 9 8 7 6 5 5 4 4 4 4 4 4
1 1 1 1 0 0 0 0 0 0 1 1 1 2 3 4 5 5 5 4 4 4 5 5 6 6 8 10 11 10 10 9 7 6 6 5 5 5 4 4 3 4 4 4
1 1 1 1 0 0 0 0 0 1 1 1 2 2 4 5 6 6 6 5 4 5 5 7 7 8 8 10 10 9 8 7 7 6 5 5 5 5 4 4 3 4 4 4
1 1 1 1 0 0 0 0 0 1 1 2 2 2 4 5 7 7 6 4 4 4 6 8 11 11 11 10 9 8 8 7 6 5 4 4 4 4 4 3 3 4 4 4
2 1 1 1 0 0 0 1 1 1 1 1 2 3 5 6 8 9 8 5 5 5 5 7 10 13 12 9 8 8 8 7 5 4 4 4 4 4 3 3 3 4 4 4
2 1 1 1 1 1 1 1 1 1 2 2 4 6 6 6 8 10 9 7 6 5 5 6 7 10 11 10 9 9 8 7 6 5 5 5 4 4 3 3 3 4 4 4
2 2 1 1 1 1 2 2 2 2 2 3 6 8 6 4 5 6 6 6 5 6 6 6 6 8 9 11 11 11 10 9 7 6 5 4 4 3 3 3 3 4 5 5
2 2 2 2 1 1 2 2 2 2 2 3 4 5 4 3 2 3 4 4 5 6 6 7 7 8 10 12 14 13 12 10 8 7 6 5 3 3 3 3 4 5 5 5
2 2 2 1 1 1 1 1 1 1 2 2 2 2 3 3 3 4 5 6 6 7 7 8 8 9 10 13 15 15 13 11 9 7 6 5 4 3 3 4 4 5 5 6
1 1 1 1 1 1 1 1 1 2 2 2 3 3 3 3 4 6 8 7 6 7 9 10 11 11 10 12 15 16 13 10 9 8 7 6 5 4 4 5 5 5 5 5
1 1 1 1 1 1 2 2 3 3 3 3 3 2 3 3 4 5 7 7 6 6 9 11 11 11 10 11 13 14 12 10 10 9 8 8 7 6 6 7 6 5 4 5
1 1 1 1 1 2 3 4 4 4 4 3 2 2 2 2 3 4 6 7 6 5 6 8 9 8 8 8 10 11 11 11 11 11 11 10 9 9 9 9 7 5 5 5
1 1 1 1 1 2 4 5 5 4 4 3 2 1 2 2 2 4 5 7 7 5 4 5 5 5 5 6 7 9 11 11 12 13 14 12 11 11 12 10 7 6 5 5
1 1 1 1 1 2 3 5 4 4 5 5 4 3 2 2 3 5 6 7 7 6 5 4 4 4 4 5 5 7 10 11 12 13 14 13 12 12 12 9 6 5 5 5
1 1 2 2 1 2 3 4 3 3 5 7 7 6 4 3 5 7 7 7 7 6 5 5 5 5 5 5 5 6 9 10 11 13 14 13 12 12 11 8 5 3 3 3
Wind_Speed
10 11 12 12 13 13 12 11 9 8 9 9 8 7 6 6 6 7 7 6 7 7 7 7 7 9 8 7 7 7 7 6 4 3 3 3 3 2 2 2 4 3 2 2
10 15 16 13 13 15 13 12 10 8 9 7 7 7 6 6 6 6 5 5 4 7 8 8 6 7 7 6 7 7 6 6 5 4 3 3 3 2 3 2 3 3 3 2
15 13 12 12 13 13 13 12 11 7 8 8 8 9 9 9 8 7 5 6 6 6 8 9 8 7 8 8 8 7 6 6 5 4 2 2 2 1 1 2 2 3 3 3
14 13 12 12 13 12 12 11 10 10 10 8 10 8 7 8 9 7 6 6 6 6 7 10 10 8 8 8 8 7 6 6 4 4 4 4 3 3 2 2 3 3 2 2
11 13 13 13 12 11 11 10 10 11 11 10 10 8 6 9 9 9 8 8 6 6 7 8 9 9 8 9 8 8 7 6 5 4 3 3 2 2 2 2 3 3 3 3
14 12 13 11 10 10 10 9 10 9 7 11 12 10 7 7 9 10 10 8 7 7 7 8 9 8 7 7 8 8 7 6 5 4 3 3 3 2 2 2 3 3 2 2
15 14 12 10 9 10 10 8 6 7 8 10 10 9 6 7 6 7 11 9 9 7 7 7 8 9 8 7 8 8 8 6 5 4 4 3 3 2 2 2 2 2 2 2
10 11 10 10 10 10 11 11 10 9 8 8 8 8 5 7 7 7 8 9 8 7 6 7 6 6 7 7 7 8 8 7 5 4 3 3 3 2 2 2 1 2 1 2
8 10 9 10 11 12 11 11 13 12 11 9 6 4 5 8 8 9 9 9 9 8 7 7 6 5 5 6 5 6 7 6 5 4 4 3 3 2 1 2 2 1 1 1
9 10 9 9 10 12 13 11 7 8 8 9 8 7 6 10 11 10 10 9 8 8 7 7 6 5 5 5 6 6 6 6 5 4 3 3 3 2 1 1 1 1 1 1
8 9 11 10 11 11 11 10 10 8 8 8 7 4 3 8 9 9 8 8 9 8 8 7 6 5 5 4 5 6 6 5 5 4 3 2 2 2 2 1 1 1 1 1
6 7 9 11 11 10 11 11 10 8 8 7 6 2 2 5 7 8 8 7 8 8 7 7 6 5 5 4 5 5 5 5 5 4 3 3 2 2 1 1 1 1 1 1
4 5 8 9 9 8 8 10 11 10 9 8 8 2 2 1 5 8 8 8 7 7 6 6 5 5 4 4 4 5 4 4 4 4 4 3 2 2 1 1 0 1 1 1
5 6 9 11 8 7 8 11 12 12 9 8 7 4 6 5 5 6 7 7 7 7 5 5 5 5 4 4 3 4 4 4 4 3 3 2 2 2 2 1 1 1 1 2
4 8 11 14 13 11 12 11 11 11 10 8 5 3 3 2 4 5 6 7 6 5 5 4 4 4 4 4 3 3 3 3 3 3 3 2 2 2 2 2 2 2 2 3
2 7 10 13 14 14 13 11 10 10 9 8 6 3 1 4 4 5 5 6 5 5 4 4 4 4 4 3 2 3 3 2 2 2 2 2 2 2 1 2 2 2 2 2
5 6 10 12 13 14 12 9 8 8 7 7 7 2 2 3 3 3 4 3 3 4 4 4 4 3 3 2 2 2 2 2 2 2 2 2 2 2 1 2 1 1 1 1
6 8 8 10 11 14 6 5 5 4 5 5 2 2 2 2 3 4 3 2 3 4 5 4 4 3 2 2 2 1 2 2 2 2 2 2 2 2 1 1 1 2 2 2
6 7 7 8 11 10 6 5 5 5 2 4 3 3 3 2 3 3 4 4 4 4 4 4 4 3 2 2 1 1 1 1 2 2 1 1 1 1 1 1 2 2 2 2
9 7 8 8 10 9 4 4 4 3 2 5 5 4 2 1 1 1 3 3 4 5 4 4 4 3 3 1 1 0 0 1 2 2 2 1 1 2 2 2 2 2 2 3
8 8 9 10 10 5 5 6 5 4 2 5 4 4 3 3 3 2 3 4 4 4 4 4 4 3 2 1 1 1 1 1 2 2 2 2 2 2 2 2 2 2 3 3
5 5 6 7 9 4 6 5 4 4 5 4 4 4 4 3 3 2 3 3 3 3 3 3 3 2 2 1 1 1 2 1 1 2 2 2 2 3 2 2 3 3 3 3
3 3 3 2 1 4 6 5 4 3 4 4 2 3 2 2 1 1 2 1 1 1 1 1 1 1 1 1 1 2 2 2 2 3 3 2 3 3 2 3 3 3 3 3
2 2 3 2 1 2 3 4 4 4 4 4 2 1 1 1 1 1 1 1 1 1 1 0 1 1 1 1 2 2 3 3 2 3 3 3 3 3 2 2 3 3 3 3
5 4 3 2 1 2 2 4 4 4 4 4 3 2 1 1 1 1 1 1 1 0 1 1 2 2 2 2 2 3 3 3 3 4 3 3 4 3 3 2 2 3 3 3
4 4 3 3 2 3 2 3 4 3 3 3 3 3 2 2 1 1 1 0 0 0 1 1 2 2 2 2 2 2 2 3 3 4 4 3 3 2 2 2 2 2 3 4
Wind_Direction
218 227 235 230 232 248 261 256 249 237 235 227 222 217 198 198 209 206 187 173 173 167 146 133 139 140 143 138 140 143 144 142 147 152 168 175 174 186 186 173 147 152 172 169
226 232 239 238 241 248 254 259 255 241 229 225 217 216 209 201 202 214 181 163 158 154 137 128 133 140 142 145 150 149 150 152 162 165 181 182 167 182 180 159 136 160 179 181
229 239 235 237 239 248 253 254 260 265 254 239 230 221 213 202 198 194 176 171 160 155 150 145 156 155 153 161 161 158 152 152 167 164 180 175 147 163 150 141 152 175 179 188
240 247 240 237 244 247 254 260 267 262 252 241 237 239 214 209 192 190 181 170 166 160 160 159 162 165 161 162 159 153 149 149 160 171 186 178 175 187 177 165 162 164 185 199
239 241 241 241 246 250 260 267 266 261 263 265 247 249 217 210 196 187 179 174 166 164 167 167 160 161 163 161 160 154 150 150 160 180 189 184 188 194 158 156 146 164 191 201
256 246 248 246 245 248 259 266 268 262 257 258 254 243 227 212 202 181 168 166 160 167 167 162 157 153 158 160 157 154 153 156 163 175 178 179 195 197 172 166 163 181 179 183
245 242 238 243 244 240 242 249 257 254 244 246 247 241 215 192 183 163 156 158 155 156 154 159 151 153 162 164 156 154 151 156 163 169 173 180 200 205 185 182 184 190 183 172
254 247 227 230 238 242 238 239 242 247 250 253 247 237 200 156 143 143 139 143 151 152 145 142 142 147 160 158 146 146 149 156 165 165 165 171 182 203 198 189 198 204 198 167
258 264 248 229 234 243 242 241 253 262 270 271 249 217 175 143 155 154 149 150 154 148 142 139 134 136 139 133 131 142 150 156 161 163 167 177 181 187 184 181 208 222 190 178
265 274 258 236 236 238 245 252 262 260 265 271 267 229 189 169 176 166 161 160 151 143 139 130 129 132 133 136 147 147 146 153 156 160 172 170 173 180 182 206 213 210 194 190
270 274 266 247 232 243 242 250 257 264 266 266 270 270 165 163 161 159 158 154 141 138 135 131 133 135 131 143 144 141 142 149 155 159 159 155 166 182 190 204 228 206 216 213
265 277 274 267 260 251 251 248 248 252 258 267 275 278 26 123 135 140 136 128 131 133 134 134 133 135 131 133 139 139 141 149 157 154 149 147 151 162 183 202 201 194 237 233
296 273 269 260 248 242 252 262 262 262 259 259 261 210 114 112 129 132 135 136 133 127 127 127 127 126 126 125 127 136 144 145 148 149 151 149 151 158 176 196 148 154 245 256
282 259 262 265 274 279 262 266 273 270 263 260 258 205 171 165 147 129 126 126 128 126 124 127 120 120 117 116 122 134 145 143 146 147 151 157 161 165 166 176 190 183 213 240
280 266 266 272 275 268 267 262 260 261 266 267 257 234 159 145 132 125 125 125 127 126 121 115 110 104 110 110 115 131 131 131 140 152 160 168 169 167 176 190 201 202 219 235
261 279 282 277 274 271 269 273 273 267 265 264 264 269 105 120 115 126 134 140 144 140 124 111 104 98 101 108 120 120 115 122 132 152 167 161 176 188 193 202 216 225 233 241
269 268 272 272 275 275 266 276 275 270 268 264 265 248 115 123 123 125 124 139 150 130 112 101 98 85 86 97 104 122 128 131 142 164 169 167 184 189 202 224 200 229 261 269
261 265 260 267 272 261 273 300 300 282 293 308 307 145 138 105 72 74 84 98 114 110 109 106 101 93 88 83 87 112 138 151 163 181 188 173 187 197 198 215 211 215 229 240
231 245 260 265 264 258 262 284 282 272 277 9 17 55 82 73 84 46 45 62 84 98 104 106 112 115 107 98 99 142 157 174 197 210 205 185 196 205 208 237 248 236 232 240
214 217 241 256 264 267 287 331 330 280 221 42 46 46 62 32 274 74 36 63 78 91 103 109 114 115 110 103 111 44 263 234 228 227 230 224 215 220 222 230 246 255 244 244
217 217 233 251 260 267 325 332 320 267 34 42 42 34 32 31 17 36 50 66 80 86 101 113 116 119 116 111 99 297 283 256 262 259 254 248 237 231 224 227 234 245 241 239
256 249 241 250 254 255 355 355 13 30 31 32 37 32 30 38 64 47 46 47 75 83 94 113 120 130 139 149 193 268 285 289 287 277 262 254 243 246 229 231 234 239 245 244
269 282 281 295 327 44 32 42 35 20 15 12 18 24 19 18 45 59 55 24 64 97 103 107 158 152 162 177 225 275 287 298 300 294 272 248 240 238 232 229 239 242 239 243
273 291 260 247 130 72 46 39 29 12 358 351 1 22 2 336 323 38 128 100 83 136 161 203 235 230 232 240 247 270 286 287 285 283 277 253 237 234 235 239 244 251 256 259
325 309 282 262 324 359 30 14 4 350 347 352 2 347 332 317 331 34 71 94 77 118 196 233 233 239 244 253 257 257 263 267 276 277 274 266 251 246 232 232 246 247 241 237
302 309 292 289 326 305 328 344 339 340 349 354 359 360 355 357 27 44 63 64 342 250 251 256 253 262 258 259 274 276 262 260 267 274 274 270 261 249 246 240 251 274 245 223